[[{"header":{"parameterUnit":"m.s-1","parameterCategory":2,"la1":30.2991,"la2":30.254,"lo1":-89.0895,"lo2":-89.0444,"dy":0.0017,"dx":0.0017,"nx":28,"ny":28,"refTime":"2025-09-17T09:00:00:Z","depth":"0","parameterNumber":2,"parameterNumberName":"U-component_of_CURRENTS"},"data":[0,0,0,0,0,0,0,0,0,0,0,0,0,0,0,0,0,0,0,0,0,0,0,0,0,0,0,0,0,0,0,0,0,0,0,0,0,0,0,0,0,0,0,0,0,0,0,0,0,0,0,0,0,0,0,0,0,0,0.2249,0.225,0,0.2285,0.2285,0.2286,0.2306,0.2306,0.2306,0.2306,0.2312,0.2313,0.2313,0,0,0,0,0,0,0,0,0,0,0,0,0,0.2268,0.2268,0.2249,0.225,0.225,0.2284,0.2285,0.2286,0.2306,0.2306,0.2306,0.2305,0.2312,0.2313,0.2313,0,0,0,0,0,0,0,0,0,0,0,0,0,0.2279,0.2267,0.2249,0.2262,0.2264,0.2284,0.2285,0.2286,0.2306,0.2306,0.2306,0.2305,0.2312,0.2313,0.2313,0.2319,0,0,0.2314,0.2315,0,0,0,0,0,0,0,0,0.2279,0.2279,0.226,0.2262,0.2263,0.2289,0.2294,0.2295,0.2306,0.2292,0.2306,0.2305,0.2301,0.2302,0.2312,0.232,0.232,0.2314,0.2315,0.2315,0.2315,0,0,0,0,0,0,0,0.2278,0.2278,0.2265,0.226,0.2262,0.229,0.2291,0.2295,0.2298,0.2293,0.2294,0.2295,0.2301,0.2312,0.2313,0.232,0.2314,0.2315,0.2315,0.2315,0.2328,0.2328,0,0,0,0,0,0,0.2266,0.2277,0.2264,0.2266,0.2268,0.2289,0.2291,0.2282,0.2299,0.2301,0.2295,0.2296,0.2311,0.2312,0.2313,0.2324,0.2315,0.2315,0.2316,0.2328,0.2328,0.2328,0,0,0,0,0,0,0.2266,0.2264,0.2263,0.2271,0.2273,0.2289,0.228,0.2283,0.2295,0.23,0.2302,0.2303,0.2311,0.2312,0.2319,0.2324,0.2315,0.2316,0.2328,0.2328,0.2328,0.2343,0,0,0,0,0,0,0.2266,0.2263,0.2262,0.227,0.2272,0.2271,0.228,0.2284,0.2294,0.2296,0.2307,0.2308,0.2311,0.2319,0.232,0.2324,0.2316,0.2328,0.2328,0.2328,0.2343,0.2344,0.2345,0,0,0,0,0,0.2266,0.2265,0.2262,0.2261,0.2266,0.2271,0.2275,0.2288,0.2295,0.2298,0.2309,0.2307,0.232,0.2319,0.232,0.2325,0.2328,0.2328,0.2328,0.2342,0.2344,0.2345,0,0,0,0,0,0,0.2282,0.2266,0.2263,0.2259,0.2262,0.2274,0.2281,0.2289,0.2302,0.2304,0.2311,0.2313,0.2325,0.2319,0.2318,0.2328,0.2322,0.2323,0.2332,0.2334,0.2335,0.2381,0.2317,0,0,0,0,0,0.228,0.2266,0.2264,0.226,0.2261,0.2271,0.2278,0.2283,0.2292,0.2299,0.2305,0.2312,0.2327,0.2325,0.2335,0.2337,0.2385,0.2339,0.234,0.2341,0.2379,0.2461,0.2474,0.2329,0.2329,0.2329,0,0,0.2283,0.2274,0.2266,0.2261,0.2266,0.2274,0.2276,0.2281,0.2296,0.2296,0.2316,0.2321,0.2331,0.2341,0.2343,0.2334,0.2401,0.2341,0.2342,0.2381,0.2463,0.2477,0.249,0.2329,0.2329,0.2329,0,0,0.2285,0.2274,0.2267,0.227,0.227,0.2276,0.2276,0.2284,0.2296,0.2306,0.232,0.2338,0.2334,0.236,0.2368,0.2382,0.2412,0.2362,0.2399,0.2477,0.2491,0.2503,0.2564,0.2582,0.2354,0.2354,0.2354,0,0.2292,0.2285,0.227,0.2274,0.2283,0.2277,0.229,0.23,0.231,0.2333,0.2309,0.236,0.2355,0.2408,0.2407,0.2389,0.2433,0.2392,0.2482,0.2496,0.2509,0.2568,0.2588,0.2355,0.2355,0.2355,0.2354,0,0.2293,0.2296,0.2295,0.2293,0.2301,0.2307,0.2316,0.2328,0.2331,0.2349,0.2393,0.2399,0.2435,0.2421,0.2417,0.2498,0.2498,0.2483,0.2486,0.2525,0.2583,0.2604,0.2356,0.2355,0.2355,0.2355,0,0,0.2284,0.2294,0.2294,0.2309,0.2314,0.2322,0.2347,0.2379,0.2413,0.2418,0.2479,0.2494,0.2507,0.2521,0.2518,0.2574,0.2679,0.2564,0.2568,0.2638,0.2851,0.2725,0.2735,0.2681,0.2685,0.2688,0.2848,0,0.2292,0.2311,0.2312,0.2339,0.2355,0.2365,0.2393,0.2422,0.2441,0.2493,0.2525,0.257,0.254,0.2558,0.2614,0.2677,0.2738,0.2638,0.2792,0.2798,0.2692,0.2756,0.2547,0.2662,0.2869,0.2872,0.2875,0,0.2293,0.2309,0.2339,0.2378,0.2385,0.2401,0.2455,0.2478,0.2546,0.2565,0.2623,0.2649,0.2743,0.2698,0.2854,0.2792,0.2834,0.2871,0.2878,0.2781,0.2711,0.2659,0.2692,0.2558,0.2907,0.2904,0.2902,0,0.2299,0.2328,0.2356,0.2367,0.2406,0.2431,0.2452,0.2505,0.2544,0.2625,0.2672,0.2766,0.283,0.2914,0.2968,0.2932,0.3135,0.309,0.3023,0.3014,0.288,0.2851,0.2817,0.3218,0.3217,0.3217,0.3216,0,0.2309,0.2333,0.2362,0.2381,0.2424,0.2443,0.2498,0.253,0.26,0.2663,0.2716,0.2792,0.2893,0.2996,0.3033,0.3093,0.3191,0.3067,0.306,0.2871,0.2841,0.2751,0.2723,0.3223,0.3222,0.322,0.3219,0,0.2315,0.2331,0.2371,0.2415,0.2429,0.246,0.2517,0.2559,0.262,0.2711,0.2747,0.2863,0.2983,0.3061,0.3205,0.3169,0.3119,0.3226,0.2982,0.2942,0.2701,0.2682,0.2637,0.2576,0.3189,0.3187,0.3185,0,0.2314,0.2335,0.2392,0.2414,0.2435,0.2478,0.251,0.2563,0.2609,0.2746,0.2798,0.2937,0.3005,0.315,0.3118,0.3162,0.3074,0.2978,0.2859,0.2685,0.2663,0.2574,0.2521,0.2695,0.2689,0.2685,0.2681,0,0.2322,0.2347,0.2383,0.2436,0.2471,0.2502,0.2549,0.2586,0.266,0.2727,0.2827,0.2894,0.2988,0.2925,0.2944,0.2927,0.2767,0.2882,0.2783,0.235,0.2177,0.2112,0.2591,0.2641,0.2645,0.2648,0.265,0.2651,0.2325,0.2357,0.241,0.2454,0.2489,0.2511,0.2508,0.2557,0.2606,0.2644,0.2765,0.2779,0.2718,0.2697,0.2676,0.2409,0.2512,0.2267,0.2289,0.2238,0.2073,0.2445,0.2421,0.2423,0.2426,0.2428,0.2429,0,0.2332,0.2372,0.2419,0.2459,0.2472,0.2495,0.2518,0.248,0.2486,0.2525,0.2551,0.2436,0.2301,0.2224,0.1965,0.1827,0.1755,0.1741,0.1575,0.1582,0.1974,0.1837,0.1583,0.1583,0.1583,0.1583,0.1584,0.1584,0.2339,0.239,0.2416,0.2428,0.2437,0.2386,0.237,0.2318,0.2301,0.2183,0.2087,0.2071,0.1936,0.1648,0.139,0.134,0.1252,0.1132,0.1239,0.1483,0.1533,0.158,0.1441,0.1109,0.1108,0.071,0.0707,0.0704]},{"header":{"parameterUnit":"m.s-1","parameterCategory":2,"la1":30.2991,"la2":30.254,"lo1":-89.0895,"lo2":-89.0444,"dy":0.0017,"dx":0.0017,"nx":28,"ny":28,"refTime":"2025-09-17T09:00:00:Z","depth":"0","parameterNumber":3,"parameterNumberName":"V-component_of_CURRENTS"},"data":[0,0,0,0,0,0,0,0,0,0,0,0,0,0,0,0,0,0,0,0,0,0,0,0,0,0,0,0,0,0,0,0,0,0,0,0,0,0,0,0,0,0,0,0,0,0,0,0,0,0,0,0,0,0,0,0,0,0,0.0084,0.0083,0,0.0047,0.0046,0.0046,0.0012,0.0012,0.0012,0.0012,-0.0042,-0.0043,-0.0044,0,0,0,0,0,0,0,0,0,0,0,0,0,0.0119,0.0118,0.0084,0.0083,0.0083,0.0047,0.0046,0.0046,0.0012,0.0012,0.0012,0.0012,-0.0042,-0.0043,-0.0044,0,0,0,0,0,0,0,0,0,0,0,0,0,0.0093,0.0118,0.0084,0.0064,0.0062,0.0047,0.0046,0.0045,0.0012,0.0012,0.0012,0.0012,-0.0041,-0.0043,-0.0045,-0.005,0,0,-0.005,-0.0051,0,0,0,0,0,0,0,0,0.0094,0.0091,0.0067,0.0065,0.0063,0.0036,0.0039,0.0013,0.0013,0.0029,0.0012,0.0011,-0.0016,-0.002,-0.0029,-0.0052,-0.0055,-0.0051,-0.0052,-0.0052,-0.0053,0,0,0,0,0,0,0,0.0096,0.0093,0.0067,0.0067,0.0064,0.0055,0.005,0.0034,0.0007,0.0028,0.0026,0.0025,-0.0018,-0.0027,-0.003,-0.0055,-0.005,-0.0052,-0.0053,-0.0054,-0.0076,-0.0076,0,0,0,0,0,0,0.0106,0.0094,0.0068,0.0066,0.0081,0.0054,0.005,0.0043,0.0007,0.0002,0.0025,0.0023,-0.0024,-0.0028,-0.0032,-0.0018,-0.0052,-0.0054,-0.0055,-0.0077,-0.0076,-0.0076,0,0,0,0,0,0,0.0106,0.0103,0.007,0.0081,0.0077,0.0054,0.0047,0.0043,0.0035,0.0006,0.0,0.0023,-0.0024,-0.003,-0.0047,-0.0021,-0.0055,-0.0057,-0.0077,-0.0077,-0.0076,-0.0003,0,0,0,0,0,0,0.0107,0.0104,0.0102,0.0082,0.0077,0.0066,0.0048,0.0042,0.0036,0.0034,0.0003,-0.0003,-0.0025,-0.0044,-0.0049,-0.0024,-0.0058,-0.0078,-0.0077,-0.0076,-0.0006,-0.0,0.0005,0,0,0,0,0,0.0109,0.0104,0.0102,0.0099,0.0075,0.0066,0.0063,0.0044,0.0037,0.0036,0.0013,-0.0002,-0.0041,-0.0045,-0.0051,-0.0026,-0.0079,-0.0077,-0.0076,-0.0009,-0.0001,0.0005,0,0,0,0,0,0,0.0115,0.01,0.0097,0.0088,0.0083,0.0062,0.0057,0.005,0.0031,0.0026,-0.0001,-0.0008,-0.001,-0.0033,-0.0037,-0.0031,-0.0059,-0.0059,-0.0006,0.0001,0.0006,0.0043,-0.006,0,0,0,0,0,0.0118,0.0112,0.0102,0.0096,0.0094,0.0079,0.0073,0.0064,0.0046,0.0038,0.0019,-0.0001,-0.001,-0.0017,-0.0034,-0.0035,-0.0016,-0.0022,-0.0016,-0.0011,0.0014,0.0084,0.01,-0.0072,-0.0072,-0.0072,0,0,0.0118,0.0111,0.0106,0.0097,0.0089,0.0095,0.0074,0.0068,0.0077,0.0035,0.0035,0.0017,-0.0007,-0.0005,-0.0007,-0.0021,0.0039,-0.0009,-0.0005,0.0018,0.0088,0.0105,0.012,-0.0071,-0.0071,-0.0071,0,0,0.0125,0.0111,0.0115,0.0115,0.0111,0.0104,0.0107,0.0093,0.009,0.0085,0.0066,0.0071,0.0038,0.0045,0.0039,0.0068,0.0068,0.0052,0.0113,0.018,0.0196,0.021,0.0228,0.0244,0.0055,0.0055,0.0055,0,0.013,0.0134,0.0116,0.0127,0.0133,0.0113,0.013,0.0123,0.0107,0.0122,0.0092,0.0098,0.0071,0.011,0.0113,0.0087,0.0107,0.009,0.0192,0.0207,0.0221,0.0236,0.0252,0.0059,0.0059,0.0058,0.0058,0,0.0148,0.0154,0.0156,0.0166,0.0169,0.0176,0.0173,0.0178,0.017,0.0174,0.0204,0.0179,0.0194,0.0181,0.0149,0.0231,0.0205,0.0195,0.0184,0.0243,0.0253,0.0269,0.0064,0.0063,0.0062,0.0061,0,0,0.0163,0.0169,0.0174,0.019,0.0193,0.02,0.022,0.0245,0.0282,0.0268,0.0329,0.031,0.0315,0.0311,0.0289,0.0336,0.0424,0.0306,0.0308,0.0339,0.0549,0.0493,0.0504,0.044,0.0444,0.0447,0.0509,0,0.0191,0.0219,0.0216,0.0251,0.0268,0.0267,0.0294,0.0315,0.0328,0.0377,0.0383,0.0419,0.0359,0.0379,0.0419,0.0438,0.0474,0.0407,0.0474,0.0475,0.0433,0.0524,0.0524,0.0577,0.0524,0.0526,0.0528,0,0.0223,0.0237,0.0272,0.0308,0.0318,0.0335,0.0392,0.0414,0.0473,0.0491,0.0538,0.0544,0.0611,0.0549,0.063,0.0593,0.0578,0.0578,0.0581,0.0524,0.0451,0.0513,0.0607,0.0538,0.0552,0.055,0.0548,0,0.0253,0.0285,0.0314,0.0323,0.0354,0.038,0.0401,0.0453,0.0498,0.0578,0.0636,0.0694,0.0751,0.0767,0.0746,0.0709,0.0829,0.0778,0.0706,0.07,0.0711,0.07,0.0767,0.0841,0.084,0.084,0.084,0,0.0289,0.0315,0.0329,0.0345,0.0395,0.041,0.0481,0.0511,0.0593,0.0684,0.0702,0.0799,0.0817,0.0871,0.0821,0.0823,0.0893,0.0749,0.0738,0.0728,0.0718,0.0664,0.0616,0.0843,0.0842,0.0842,0.0841,0,0.0313,0.0323,0.0356,0.0391,0.0406,0.044,0.0514,0.0583,0.0646,0.0775,0.0814,0.0919,0.1002,0.098,0.1023,0.0934,0.0891,0.089,0.0847,0.0829,0.0674,0.0628,0.0705,0.0685,0.0841,0.0841,0.084,0,0.0326,0.0344,0.0379,0.0408,0.0422,0.0476,0.0534,0.0598,0.0683,0.0854,0.0937,0.1052,0.1151,0.1168,0.1069,0.0995,0.0909,0.0887,0.0813,0.0699,0.0642,0.0619,0.0596,0.0844,0.0844,0.0843,0.0843,0,0.0346,0.0353,0.0375,0.0438,0.0491,0.0563,0.0649,0.072,0.0837,0.0958,0.1134,0.1228,0.1259,0.1227,0.11,0.1019,0.0847,0.0873,0.0809,0.0706,0.0642,0.0604,0.0723,0.084,0.084,0.084,0.0841,0.0841,0.0356,0.0374,0.0413,0.0475,0.0546,0.0657,0.0727,0.0847,0.0993,0.1183,0.126,0.1412,0.1324,0.1182,0.1064,0.0816,0.0835,0.072,0.0689,0.0688,0.064,0.0716,0.0778,0.0778,0.0778,0.0778,0.0778,0,0.0376,0.0407,0.0461,0.0545,0.064,0.0674,0.0821,0.0912,0.1091,0.1262,0.1406,0.1446,0.1319,0.1138,0.0827,0.0663,0.0618,0.0575,0.0565,0.056,0.0688,0.0654,0.0629,0.0629,0.0629,0.0629,0.0629,0.0629,0.0393,0.0441,0.0475,0.062,0.0689,0.0816,0.0902,0.1039,0.1173,0.1359,0.1452,0.1524,0.1369,0.0907,0.0592,0.0522,0.0434,0.0414,0.0375,0.0454,0.0466,0.0477,0.0436,0.0365,0.0365,0.0279,0.0277,0.0277]}],[{"header":{"parameterUnit":"m.s-1","parameterCategory":2,"la1":30.2991,"la2":30.254,"lo1":-89.0895,"lo2":-89.0444,"dy":0.0017,"dx":0.0017,"nx":28,"ny":28,"refTime":"2025-09-17T09:00:00:Z","depth":"2","parameterNumber":2,"parameterNumberName":"U-component_of_CURRENTS"},"data":[0,0,0,0,0,0,0,0,0,0,0,0,0,0,0,0,0,0,0,0,0,0,0,0,0,0,0,0,0,0,0,0,0,0,0,0,0,0,0,0,0,0,0,0,0,0,0,0,0,0,0,0,0,0,0,0,0,0,0.17,0.17,0,0.1675,0.1674,0.1674,0.1752,0.1754,0.1757,0.1759,0.1836,0.1836,0.1836,0,0,0,0,0,0,0,0,0,0,0,0,0,0.1722,0.1722,0.17,0.17,0.1699,0.1675,0.1674,0.1674,0.1752,0.1755,0.1757,0.176,0.1836,0.1836,0.1836,0,0,0,0,0,0,0,0,0,0,0,0,0,0.1707,0.1722,0.17,0.1734,0.1737,0.1675,0.1674,0.1674,0.1751,0.1755,0.1758,0.1761,0.1836,0.1836,0.1836,0.1768,0,0,0.1836,0.1836,0,0,0,0,0,0,0,0,0.1708,0.1707,0.173,0.1732,0.1735,0.1719,0.171,0.171,0.175,0.1747,0.1759,0.1763,0.1803,0.1806,0.1794,0.1771,0.1775,0.1836,0.1836,0.1836,0.1836,0,0,0,0,0,0,0,0.1709,0.1707,0.1692,0.1729,0.1732,0.1718,0.1721,0.171,0.1759,0.1748,0.1753,0.1747,0.1806,0.1794,0.1797,0.1776,0.1836,0.1836,0.1836,0.1836,0.1823,0.1823,0,0,0,0,0,0,0.1711,0.1709,0.1692,0.1691,0.1728,0.1715,0.1718,0.1722,0.1757,0.1765,0.1744,0.1751,0.1792,0.1797,0.18,0.1881,0.1836,0.1836,0.1836,0.1823,0.1823,0.1823,0,0,0,0,0,0,0.1711,0.171,0.1693,0.1698,0.1695,0.1712,0.1714,0.1719,0.1739,0.1753,0.1764,0.1763,0.1795,0.18,0.1822,0.1879,0.1836,0.1836,0.1824,0.1823,0.1823,0.1941,0,0,0,0,0,0,0.1712,0.171,0.172,0.1698,0.1694,0.1697,0.1711,0.1716,0.1727,0.1736,0.1771,0.178,0.1798,0.1821,0.1821,0.1878,0.1836,0.1824,0.1824,0.1823,0.1937,0.1944,0.195,0,0,0,0,0,0.1713,0.1708,0.1721,0.1719,0.1705,0.1697,0.1695,0.1718,0.1725,0.1745,0.176,0.1781,0.1819,0.1821,0.1821,0.1879,0.1824,0.1824,0.1823,0.1934,0.1943,0.195,0,0,0,0,0,0,0.1722,0.1714,0.1729,0.1723,0.1731,0.1711,0.1713,0.172,0.1739,0.175,0.1769,0.1778,0.1812,0.1806,0.1808,0.1865,0.1827,0.1826,0.1911,0.1919,0.1926,0.192,0.1836,0,0,0,0,0,0.1725,0.1729,0.1722,0.1725,0.1721,0.1717,0.1715,0.1731,0.1735,0.1748,0.177,0.1784,0.1796,0.1831,0.1823,0.1856,0.1857,0.1889,0.1896,0.1902,0.1892,0.1955,0.1969,0.1821,0.1821,0.1821,0,0,0.1726,0.1725,0.1727,0.1728,0.1725,0.1732,0.1726,0.1728,0.1753,0.1749,0.179,0.1793,0.1797,0.1841,0.1858,0.1862,0.1942,0.1901,0.1908,0.1894,0.1956,0.1971,0.1985,0.182,0.182,0.182,0,0,0.1727,0.1731,0.1735,0.1742,0.1746,0.1745,0.1752,0.1749,0.1772,0.1789,0.18,0.1835,0.1847,0.1888,0.1901,0.1927,0.1952,0.1933,0.2004,0.2067,0.2081,0.2093,0.2116,0.213,0.1969,0.1969,0.1969,0,0.1739,0.1735,0.1736,0.1746,0.1747,0.1757,0.1762,0.1781,0.1797,0.1815,0.182,0.1847,0.1869,0.1932,0.1964,0.195,0.1975,0.199,0.2082,0.2094,0.2105,0.2126,0.2139,0.1975,0.1974,0.1974,0.1973,0,0.1736,0.1747,0.1743,0.1767,0.1779,0.1777,0.18,0.1833,0.1848,0.1866,0.1909,0.1928,0.1958,0.1984,0.1993,0.2087,0.2073,0.2068,0.2079,0.2129,0.2145,0.2157,0.1983,0.1981,0.1979,0.1978,0,0,0.1729,0.1738,0.1743,0.1764,0.1781,0.1796,0.1838,0.1873,0.191,0.1944,0.1992,0.2035,0.205,0.2061,0.2089,0.2165,0.228,0.2173,0.2174,0.2223,0.2409,0.2295,0.2296,0.2319,0.2322,0.2324,0.2392,0,0.1728,0.1738,0.1746,0.1785,0.1788,0.1823,0.1865,0.1915,0.1944,0.2002,0.2043,0.2086,0.2081,0.212,0.2193,0.2246,0.2316,0.2259,0.2326,0.2326,0.2244,0.2308,0.2087,0.212,0.2404,0.2406,0.2407,0,0.1716,0.1729,0.1733,0.1794,0.1801,0.184,0.1907,0.1955,0.2036,0.2066,0.2119,0.2131,0.2234,0.2221,0.2345,0.2319,0.2369,0.2407,0.2411,0.2267,0.2235,0.2111,0.2131,0.2427,0.2425,0.2424,0.2422,0,0.1694,0.1731,0.173,0.1743,0.1804,0.1843,0.1904,0.1975,0.2019,0.2123,0.2166,0.2234,0.2317,0.2366,0.2427,0.2413,0.2554,0.2537,0.2467,0.2459,0.2256,0.2224,0.2624,0.2624,0.2624,0.2624,0.2623,0,0.1675,0.1703,0.1729,0.1739,0.1786,0.1851,0.1911,0.199,0.2078,0.2148,0.2212,0.2268,0.2373,0.2442,0.2461,0.2493,0.2579,0.2477,0.2478,0.2285,0.2257,0.2501,0.2485,0.2626,0.2625,0.2625,0.2625,0,0.1668,0.1667,0.1696,0.1751,0.1768,0.1828,0.1926,0.1986,0.2083,0.2181,0.2225,0.2351,0.2443,0.2487,0.2598,0.2555,0.2576,0.2569,0.2311,0.2279,0.2425,0.2415,0.2483,0.248,0.2477,0.2475,0.2473,0,0.1656,0.1651,0.1691,0.1723,0.1756,0.183,0.188,0.198,0.2043,0.2208,0.2266,0.2391,0.2417,0.2498,0.2463,0.2439,0.2548,0.2247,0.216,0.2421,0.2416,0.241,0.2403,0.1944,0.1938,0.1933,0.1929,0,0.1653,0.1661,0.1692,0.1725,0.1778,0.183,0.1922,0.1947,0.2082,0.2133,0.2219,0.2238,0.2315,0.2187,0.2195,0.2157,0.2214,0.2141,0.2522,0.2,0.1914,0.1908,0.192,0.1884,0.1889,0.1892,0.1894,0.1896,0.1662,0.1676,0.1696,0.1746,0.1802,0.185,0.1853,0.1928,0.1963,0.201,0.2081,0.2022,0.2006,0.1859,0.1803,0.179,0.1944,0.1856,0.1872,0.1892,0.1804,0.1717,0.1632,0.1635,0.1637,0.164,0.1641,0,0.1645,0.1679,0.1724,0.1762,0.1805,0.1864,0.1885,0.1853,0.1838,0.1833,0.1806,0.155,0.145,0.1476,0.1357,0.1341,0.1336,0.1311,0.1287,0.1331,0.137,0.1256,0.0938,0.0936,0.0934,0.0933,0,0,0.1654,0.1669,0.1683,0.1734,0.1795,0.1788,0.1783,0.1702,0.163,0.1486,0.1364,0.1363,0.1379,0.1113,0.1082,0.1001,0.1164,0.096,0.152,0.1534,0.1571,0.1675,0.1546,0,0,0,0,0]},{"header":{"parameterUnit":"m.s-1","parameterCategory":2,"la1":30.2991,"la2":30.254,"lo1":-89.0895,"lo2":-89.0444,"dy":0.0017,"dx":0.0017,"nx":28,"ny":28,"refTime":"2025-09-17T09:00:00:Z","depth":"2","parameterNumber":3,"parameterNumberName":"V-component_of_CURRENTS"},"data":[0,0,0,0,0,0,0,0,0,0,0,0,0,0,0,0,0,0,0,0,0,0,0,0,0,0,0,0,0,0,0,0,0,0,0,0,0,0,0,0,0,0,0,0,0,0,0,0,0,0,0,0,0,0,0,0,0,0,0.0048,0.0048,0,0.0037,0.0037,0.0037,0.0001,0.0001,-0.0,-0.0001,-0.0042,-0.0043,-0.0043,0,0,0,0,0,0,0,0,0,0,0,0,0,0.0048,0.0048,0.0048,0.0048,0.0048,0.0037,0.0037,0.0037,0.0002,0.0001,-0.0,-0.0001,-0.0042,-0.0043,-0.0043,0,0,0,0,0,0,0,0,0,0,0,0,0,0.0043,0.0048,0.0048,0.0029,0.0027,0.0037,0.0037,0.0037,0.0002,0.0001,-0.0001,-0.0002,-0.0042,-0.0043,-0.0043,-0.0024,0,0,-0.0045,-0.0045,0,0,0,0,0,0,0,0,0.0044,0.0043,0.0032,0.003,0.0029,0.002,0.0022,0.0015,0.0002,0.0011,-0.0001,-0.0002,-0.0023,-0.0025,-0.0025,-0.0026,-0.0028,-0.0045,-0.0045,-0.0046,-0.0046,0,0,0,0,0,0,0,0.0044,0.0044,0.0043,0.0032,0.003,0.0025,0.0023,0.0021,-0.0001,0.001,0.0008,0.0008,-0.0025,-0.0024,-0.0026,-0.0029,-0.0045,-0.0046,-0.0046,-0.0046,-0.0041,-0.0041,0,0,0,0,0,0,0.0047,0.0044,0.0043,0.0043,0.0034,0.0026,0.0023,0.0023,0.0,-0.0004,0.0009,0.0006,-0.0023,-0.0026,-0.0028,-0.0033,-0.0046,-0.0046,-0.0047,-0.0042,-0.0041,-0.0041,0,0,0,0,0,0,0.0047,0.0047,0.0044,0.0044,0.0043,0.0027,0.0027,0.0024,0.0016,-0.0001,-0.0006,0.0004,-0.0024,-0.0027,-0.0033,-0.0034,-0.0047,-0.0047,-0.0042,-0.0042,-0.0041,-0.0026,0,0,0,0,0,0,0.0047,0.0047,0.0048,0.0044,0.0043,0.0043,0.0028,0.0024,0.0019,0.0015,-0.0006,-0.0011,-0.0025,-0.0032,-0.0034,-0.0035,-0.0048,-0.0043,-0.0042,-0.0041,-0.0027,-0.0025,-0.0023,0,0,0,0,0,0.0047,0.005,0.0048,0.0048,0.0044,0.0043,0.0042,0.0027,0.002,0.0016,0.0006,-0.0011,-0.0028,-0.0032,-0.0034,-0.0036,-0.0043,-0.0042,-0.0041,-0.0028,-0.0025,-0.0023,0,0,0,0,0,0,0.0049,0.0047,0.0044,0.0045,0.0042,0.0037,0.0035,0.0029,0.002,0.0017,-0.0002,-0.0007,-0.0011,-0.0021,-0.0025,-0.003,-0.0039,-0.0038,-0.0028,-0.0025,-0.0023,-0.0001,-0.0048,0,0,0,0,0,0.0052,0.0052,0.005,0.0051,0.0051,0.0045,0.0043,0.0037,0.003,0.0024,0.0008,-0.0002,-0.0005,-0.0014,-0.0018,-0.002,-0.0012,-0.0022,-0.002,-0.0018,-0.0001,0.0028,0.0034,-0.0037,-0.0037,-0.0037,0,0,0.0052,0.0052,0.0051,0.0051,0.0049,0.0055,0.0041,0.0041,0.0045,0.0023,0.0018,0.0008,-0.0001,-0.0004,-0.0008,-0.0017,0.0001,-0.0017,-0.0015,0.0001,0.003,0.0037,0.0043,-0.0036,-0.0036,-0.0036,0,0,0.0058,0.0055,0.0059,0.0061,0.0062,0.0061,0.0061,0.0056,0.005,0.0051,0.0038,0.0033,0.0018,0.0015,0.0012,0.0028,0.0016,0.0015,0.0036,0.0063,0.0069,0.0075,0.0071,0.0076,0.0009,0.0009,0.0009,0,0.0058,0.0068,0.006,0.0069,0.0075,0.0065,0.0077,0.0074,0.0065,0.0068,0.0051,0.0048,0.0035,0.0043,0.0043,0.0033,0.0036,0.0023,0.0067,0.0073,0.0078,0.0073,0.0079,0.001,0.001,0.001,0.001,0,0.0074,0.008,0.0084,0.0094,0.0097,0.0105,0.0106,0.0104,0.0098,0.0095,0.0099,0.0085,0.0084,0.0072,0.0062,0.0088,0.0071,0.0071,0.0061,0.0087,0.0078,0.0084,0.0011,0.0011,0.0011,0.0011,0,0,0.0077,0.0092,0.0094,0.0103,0.0114,0.0117,0.0131,0.014,0.0154,0.0137,0.0154,0.0143,0.0132,0.0131,0.0112,0.0127,0.0156,0.0114,0.0115,0.0111,0.0195,0.017,0.0173,0.0162,0.0164,0.0165,0.0164,0,0.0093,0.0115,0.0121,0.0141,0.0152,0.0155,0.0168,0.0175,0.0179,0.0189,0.0178,0.0186,0.0154,0.0154,0.0166,0.0175,0.0176,0.0155,0.0171,0.0171,0.0148,0.0182,0.0181,0.018,0.0169,0.017,0.0171,0,0.0112,0.0124,0.0149,0.0167,0.0173,0.0182,0.0209,0.0219,0.0235,0.0239,0.0244,0.0239,0.0255,0.0227,0.025,0.0237,0.0219,0.0214,0.0214,0.0197,0.0159,0.0158,0.0191,0.0181,0.018,0.0179,0.0179,0,0.012,0.0143,0.0164,0.0171,0.0191,0.0201,0.0209,0.0231,0.0257,0.0272,0.0301,0.0303,0.0324,0.0316,0.0307,0.0283,0.0334,0.0298,0.0248,0.0244,0.0252,0.0247,0.0311,0.0311,0.0311,0.0311,0.0311,0,0.0136,0.015,0.0166,0.0175,0.02,0.0207,0.0245,0.025,0.0288,0.0344,0.0324,0.0387,0.0355,0.0378,0.034,0.0326,0.036,0.0268,0.0257,0.0253,0.0248,0.026,0.0254,0.0311,0.0311,0.0311,0.0311,0,0.0137,0.0153,0.017,0.0191,0.0204,0.0214,0.0265,0.0301,0.0326,0.0404,0.0417,0.0465,0.0503,0.0456,0.0457,0.0382,0.036,0.0335,0.0316,0.0303,0.0231,0.0225,0.0273,0.0272,0.0271,0.0271,0.0271,0,0.0142,0.0153,0.0176,0.0197,0.0206,0.0237,0.0278,0.0311,0.0369,0.0478,0.053,0.0581,0.0646,0.0609,0.05,0.0408,0.0392,0.0314,0.0267,0.0249,0.0234,0.0229,0.0225,0.0269,0.0269,0.0268,0.0268,0,0.0146,0.0149,0.0162,0.0211,0.0249,0.0304,0.0365,0.0427,0.0503,0.0596,0.0743,0.0803,0.0748,0.068,0.0515,0.0444,0.0325,0.0303,0.033,0.0275,0.0245,0.0229,0.0226,0.0266,0.0266,0.0266,0.0266,0.0266,0.0146,0.0155,0.0186,0.0235,0.0286,0.0387,0.0458,0.0563,0.0699,0.0848,0.0889,0.0952,0.0811,0.0612,0.049,0.0324,0.0328,0.0243,0.0245,0.0246,0.0243,0.0214,0.0226,0.0226,0.0226,0.0226,0.0226,0,0.0165,0.0182,0.0222,0.0293,0.0372,0.0391,0.0537,0.0636,0.0832,0.0925,0.1039,0.0896,0.0801,0.0636,0.0391,0.0246,0.0229,0.0194,0.0207,0.0211,0.0213,0.0208,0.0182,0.0181,0.0181,0.018,0,0,0.0178,0.0221,0.0251,0.0378,0.0427,0.0543,0.0637,0.0795,0.089,0.1019,0.1026,0.1017,0.0815,0.0619,0.0445,0.0319,0.0291,0.0284,0.0333,0.0373,0.0377,0.0255,0.0252,0,0,0,0,0]}],[{"header":{"parameterUnit":"m.s-1","parameterCategory":2,"la1":30.2991,"la2":30.254,"lo1":-89.0895,"lo2":-89.0444,"dy":0.0017,"dx":0.0017,"nx":28,"ny":28,"refTime":"2025-09-17T09:00:00:Z","depth":"4","parameterNumber":2,"parameterNumberName":"U-component_of_CURRENTS"},"data":[0,0,0,0,0,0,0,0,0,0,0,0,0,0,0,0,0,0,0,0,0,0,0,0,0,0,0,0,0,0,0,0,0,0,0,0,0,0,0,0,0,0,0,0,0,0,0,0,0,0,0,0,0,0,0,0,0,0,0.0735,0.0735,0,0.0727,0.0727,0.0727,0.0714,0.0714,0.0714,0.0714,0.0715,0.0715,0.0715,0,0,0,0,0,0,0,0,0,0,0,0,0,0.0724,0.0724,0.0735,0.0735,0.0736,0.0727,0.0727,0.0727,0.0714,0.0714,0.0714,0.0714,0.0715,0.0715,0.0715,0,0,0,0,0,0,0,0,0,0,0,0,0,0.0721,0.0724,0.0735,0.073,0.073,0.0727,0.0727,0.0726,0.0714,0.0714,0.0714,0.0714,0.0715,0.0715,0.0715,0.0714,0,0,0.0715,0.0715,0,0,0,0,0,0,0,0,0.0721,0.0721,0.0731,0.0731,0.073,0.0724,0.0724,0.0724,0.0714,0.0717,0.0714,0.0714,0.0721,0.072,0.0714,0.0714,0.0714,0.0715,0.0715,0.0715,0.0715,0,0,0,0,0,0,0,0.0721,0.0721,0.0729,0.0731,0.0731,0.0723,0.0723,0.0723,0.0716,0.0716,0.0716,0.072,0.072,0.0714,0.0714,0.0714,0.0715,0.0715,0.0715,0.0715,0.0779,0.078,0,0,0,0,0,0,0.0729,0.0721,0.0729,0.0729,0.0729,0.0724,0.0723,0.0724,0.0716,0.0716,0.072,0.0719,0.0714,0.0714,0.0714,0.0744,0.0715,0.0715,0.0715,0.0777,0.0779,0.0781,0,0,0,0,0,0,0.0729,0.0729,0.073,0.0728,0.0727,0.0724,0.0725,0.0723,0.0735,0.0719,0.0719,0.0736,0.0714,0.0714,0.0731,0.0743,0.0715,0.0715,0.0775,0.0778,0.078,0.0784,0,0,0,0,0,0,0.0728,0.0729,0.0736,0.0728,0.0728,0.0734,0.0725,0.0723,0.0738,0.0738,0.0732,0.0731,0.0714,0.0731,0.0731,0.0742,0.0715,0.0773,0.0776,0.0779,0.0781,0.0786,0.079,0,0,0,0,0,0.0728,0.0728,0.0736,0.0737,0.0736,0.0734,0.0733,0.0729,0.0739,0.0741,0.0746,0.0732,0.0752,0.0732,0.0732,0.0743,0.0771,0.0775,0.0779,0.0779,0.0785,0.079,0,0,0,0,0,0,0.0735,0.0727,0.0735,0.0737,0.0743,0.0733,0.074,0.0744,0.0749,0.076,0.0746,0.0745,0.0768,0.0764,0.0743,0.0777,0.0763,0.0767,0.0764,0.0769,0.0773,0.081,0.0715,0,0,0,0,0,0.074,0.0735,0.0737,0.0744,0.075,0.0754,0.0757,0.0759,0.0762,0.0765,0.0764,0.0773,0.0781,0.0782,0.0789,0.08,0.0823,0.0814,0.0818,0.0822,0.0856,0.0899,0.091,0.0794,0.0793,0.0793,0,0,0.0747,0.0744,0.0744,0.0745,0.0753,0.076,0.0755,0.0769,0.0781,0.0766,0.0787,0.0791,0.0792,0.0804,0.0814,0.0801,0.0864,0.0827,0.0829,0.0862,0.0904,0.0915,0.0925,0.0796,0.0796,0.0795,0,0,0.0753,0.0761,0.0758,0.0764,0.0778,0.0778,0.079,0.0796,0.0806,0.0829,0.0823,0.085,0.0851,0.0855,0.0857,0.0899,0.0891,0.089,0.093,0.097,0.098,0.0989,0.1012,0.1023,0.0884,0.0884,0.0884,0,0.0764,0.0761,0.0761,0.0766,0.0772,0.0791,0.0798,0.0813,0.0825,0.0841,0.0845,0.0881,0.0886,0.0902,0.092,0.0909,0.0921,0.0898,0.0974,0.0984,0.0993,0.1015,0.1027,0.0885,0.0885,0.0885,0.0885,0,0.0765,0.0771,0.0777,0.0784,0.0791,0.0803,0.0822,0.0845,0.0869,0.0885,0.0926,0.0937,0.0964,0.096,0.0955,0.101,0.0992,0.0975,0.0955,0.1005,0.1025,0.1037,0.0886,0.0885,0.0885,0.0885,0,0,0.0758,0.0771,0.0775,0.0773,0.0801,0.0797,0.0839,0.0865,0.0889,0.093,0.0962,0.1004,0.1027,0.1037,0.1026,0.1063,0.1133,0.105,0.1052,0.1064,0.1209,0.1073,0.1074,0.1115,0.1118,0.112,0.1189,0,0.076,0.0757,0.0771,0.0777,0.0773,0.0808,0.0832,0.0866,0.0906,0.0944,0.0994,0.1032,0.1046,0.106,0.1105,0.1135,0.1171,0.1117,0.1171,0.1173,0.1038,0.1086,0.1129,0.1198,0.1201,0.1203,0.1205,0,0.0749,0.0743,0.0744,0.075,0.0755,0.0774,0.081,0.0835,0.0908,0.0944,0.1013,0.1054,0.1142,0.1135,0.1244,0.1203,0.1227,0.1243,0.1245,0.1136,0.1062,0.1146,0.1228,0.1226,0.1224,0.1222,0.1221,0,0.0706,0.072,0.0712,0.0717,0.0736,0.0758,0.0783,0.0844,0.0876,0.0963,0.1006,0.1099,0.1152,0.1228,0.1301,0.128,0.1396,0.1362,0.1259,0.1249,0.1348,0.1338,0.1441,0.1441,0.1441,0.1441,0.144,0,0.0677,0.067,0.0696,0.0688,0.0688,0.0723,0.075,0.0792,0.0871,0.0915,0.1011,0.1056,0.1182,0.1261,0.1319,0.1334,0.1421,0.1292,0.1267,0.1344,0.1333,0.1355,0.1344,0.1443,0.1443,0.1442,0.1442,0,0.0614,0.064,0.0616,0.0643,0.0664,0.0658,0.0733,0.0755,0.0841,0.0907,0.0951,0.1058,0.1152,0.125,0.1357,0.1331,0.1376,0.1349,0.1433,0.1408,0.1196,0.1185,0.1251,0.1247,0.1244,0.1241,0.1238,0,0.0575,0.056,0.0569,0.0567,0.0585,0.0609,0.0638,0.073,0.0768,0.0897,0.092,0.1036,0.1104,0.1158,0.1246,0.1327,0.1305,0.1311,0.1261,0.1213,0.1183,0.1177,0.117,0.1233,0.1232,0.1231,0.123,0,0.0484,0.0491,0.0474,0.0484,0.0508,0.0517,0.0578,0.0608,0.0721,0.0815,0.0888,0.095,0.1014,0.1089,0.1143,0.1199,0.1308,0.1275,0.1282,0.1235,0.1191,0.1163,0.1161,0.1219,0.122,0.1221,0.1222,0,0.0411,0.0383,0.0385,0.0391,0.041,0.0424,0.0464,0.0533,0.0594,0.0766,0.0782,0.0903,0.1003,0.1019,0.1085,0.1116,0.1095,0.1061,0.1078,0.1092,0.1005,0.0925,0.0869,0,0,0,0,0,0.0329,0.0314,0.0305,0.0307,0.0322,0.0351,0.0423,0.0477,0.0612,0.0643,0.0722,0.0794,0.0866,0.091,0.0913,0.0987,0.1084,0.098,0.105,0.1153,0.1167,0.1077,0,0,0,0,0,0,0.0284,0.0257,0.0275,0.0245,0.0245,0.0269,0.0314,0.0404,0.0431,0.0571,0.0617,0.0722,0.0803,0.0869,0.0893,0.0909,0.0929,0.1057,0.1054,0.1145,0.1158,0.1169,0.1081,0,0,0,0,0]},{"header":{"parameterUnit":"m.s-1","parameterCategory":2,"la1":30.2991,"la2":30.254,"lo1":-89.0895,"lo2":-89.0444,"dy":0.0017,"dx":0.0017,"nx":28,"ny":28,"refTime":"2025-09-17T09:00:00:Z","depth":"4","parameterNumber":3,"parameterNumberName":"V-component_of_CURRENTS"},"data":[0,0,0,0,0,0,0,0,0,0,0,0,0,0,0,0,0,0,0,0,0,0,0,0,0,0,0,0,0,0,0,0,0,0,0,0,0,0,0,0,0,0,0,0,0,0,0,0,0,0,0,0,0,0,0,0,0,0,0.0152,0.0152,0,0.0159,0.0159,0.0159,0.0167,0.0168,0.0168,0.0168,0.0192,0.0193,0.0193,0,0,0,0,0,0,0,0,0,0,0,0,0,0.0125,0.0126,0.0152,0.0152,0.0152,0.0159,0.0159,0.0159,0.0167,0.0168,0.0168,0.0168,0.0192,0.0192,0.0193,0,0,0,0,0,0,0,0,0,0,0,0,0,0.0135,0.0126,0.0152,0.0157,0.0158,0.0159,0.0159,0.0159,0.0167,0.0168,0.0168,0.0168,0.0192,0.0192,0.0193,0.0193,0,0,0.0195,0.0196,0,0,0,0,0,0,0,0,0.0134,0.0135,0.0156,0.0157,0.0158,0.0163,0.0158,0.0171,0.0167,0.0163,0.0168,0.0168,0.0184,0.0185,0.0185,0.0194,0.0195,0.0195,0.0196,0.0196,0.0196,0,0,0,0,0,0,0,0.0133,0.0135,0.0154,0.0157,0.0157,0.0152,0.0154,0.0161,0.0172,0.0164,0.0165,0.0166,0.0184,0.0185,0.0186,0.0195,0.0195,0.0196,0.0197,0.0197,0.0204,0.0204,0,0,0,0,0,0,0.0134,0.0135,0.0154,0.0155,0.0147,0.0153,0.0155,0.0161,0.0172,0.0174,0.0166,0.0166,0.0183,0.0185,0.0187,0.0199,0.0196,0.0197,0.0197,0.0205,0.0204,0.0204,0,0,0,0,0,0,0.0134,0.0136,0.0154,0.0145,0.0147,0.0153,0.016,0.0161,0.0165,0.0173,0.0175,0.0169,0.0183,0.0186,0.0203,0.02,0.0197,0.0198,0.0205,0.0205,0.0204,0.0217,0,0,0,0,0,0,0.0133,0.0136,0.0141,0.0145,0.0147,0.0157,0.0159,0.0161,0.0165,0.0166,0.0177,0.0179,0.0184,0.0202,0.0204,0.0201,0.0198,0.0205,0.0205,0.0204,0.0217,0.0217,0.0217,0,0,0,0,0,0.0132,0.014,0.0141,0.0144,0.0154,0.0158,0.0158,0.0163,0.0165,0.0168,0.018,0.0179,0.02,0.0203,0.0205,0.0202,0.0205,0.0205,0.0204,0.0216,0.0217,0.0217,0,0,0,0,0,0,0.0132,0.0141,0.0143,0.0154,0.0156,0.0159,0.0162,0.0164,0.0175,0.0178,0.0186,0.0189,0.0199,0.0199,0.0202,0.0201,0.0198,0.0198,0.0206,0.0207,0.0207,0.0202,0.0199,0,0,0,0,0,0.0133,0.0142,0.0147,0.0155,0.0156,0.0159,0.0161,0.0164,0.0172,0.0177,0.0184,0.019,0.0196,0.0202,0.0206,0.0212,0.0198,0.0207,0.0208,0.0208,0.0204,0.0177,0.0175,0.0202,0.0202,0.0202,0,0,0.0134,0.0142,0.0145,0.0155,0.0157,0.0163,0.0161,0.0165,0.0173,0.0178,0.0192,0.0194,0.0198,0.0205,0.0208,0.0207,0.0194,0.0207,0.0208,0.0203,0.0177,0.0174,0.0172,0.0202,0.0202,0.0202,0,0,0.0139,0.0147,0.0154,0.0158,0.0163,0.0166,0.0168,0.0172,0.0176,0.0188,0.0192,0.0193,0.0205,0.0204,0.0207,0.0209,0.0196,0.0207,0.0207,0.0182,0.0179,0.0177,0.0163,0.0159,0.0207,0.0207,0.0207,0,0.0138,0.0153,0.0155,0.0163,0.0172,0.0169,0.0179,0.0181,0.019,0.0195,0.0194,0.0198,0.0202,0.0205,0.0207,0.0209,0.0196,0.0209,0.0182,0.0179,0.0177,0.0162,0.0158,0.0208,0.0208,0.0208,0.0208,0,0.0148,0.0161,0.0165,0.0179,0.0186,0.0193,0.0198,0.0202,0.0206,0.0206,0.0207,0.0204,0.0206,0.0202,0.0209,0.0193,0.0191,0.0186,0.0183,0.0175,0.016,0.0155,0.0209,0.0209,0.0208,0.0208,0,0,0.0144,0.0168,0.017,0.0188,0.0197,0.0209,0.0216,0.0226,0.0238,0.0224,0.023,0.0224,0.0213,0.0214,0.021,0.0185,0.0161,0.018,0.0178,0.0168,0.0111,0.011,0.0105,0.0151,0.015,0.0149,0.0112,0,0.0152,0.0179,0.0186,0.0216,0.0233,0.0238,0.0252,0.0258,0.0259,0.0261,0.0235,0.0242,0.0221,0.0226,0.0194,0.0175,0.0147,0.0172,0.0118,0.0117,0.0118,0.0098,0.0146,0.0108,0.0107,0.0106,0.0106,0,0.0158,0.0181,0.0211,0.0252,0.026,0.0277,0.0305,0.0317,0.0311,0.0309,0.0288,0.0272,0.0241,0.0223,0.0159,0.0176,0.0143,0.0116,0.0114,0.0102,0.0106,0.0115,0.0097,0.0098,0.0098,0.0099,0.0099,0,0.0166,0.0201,0.0232,0.0244,0.0282,0.0301,0.0323,0.0332,0.0355,0.0341,0.0346,0.0296,0.0284,0.022,0.0164,0.0163,0.0089,0.0083,0.0044,0.0044,0.0053,0.0056,0.0026,0.0026,0.0026,0.0026,0.0026,0,0.0176,0.0204,0.0243,0.0262,0.0314,0.0328,0.0374,0.0385,0.0398,0.042,0.0376,0.0368,0.0281,0.023,0.0168,0.0093,0.0091,0.0037,0.0029,0.0061,0.0065,0.005,0.0054,0.0025,0.0025,0.0026,0.0026,0,0.0184,0.0202,0.0251,0.03,0.0321,0.0363,0.0425,0.0455,0.0459,0.0482,0.0481,0.0426,0.0356,0.027,0.0172,0.0111,0.0036,0.0011,0.0058,0.0055,0.0007,0.0011,-0.0042,-0.0042,-0.0043,-0.0043,-0.0043,0,0.0192,0.0215,0.0284,0.0324,0.0352,0.0413,0.0456,0.0486,0.0511,0.0514,0.052,0.0464,0.0415,0.0272,0.0176,0.0052,0.0032,-0.0008,-0.0018,-0.0001,-0.0003,0.0002,0.0007,-0.0044,-0.0044,-0.0044,-0.0044,0,0.0218,0.0241,0.0283,0.0351,0.0409,0.0477,0.0531,0.0554,0.0577,0.0585,0.055,0.0474,0.0391,0.027,0.0177,0.0086,0.0014,-0.0013,-0.0013,-0.0023,-0.0004,-0.0005,0.0,-0.0046,-0.0046,-0.0045,-0.0045,0,0.0241,0.0274,0.0318,0.0381,0.0449,0.0507,0.0545,0.0568,0.0593,0.0588,0.0573,0.0484,0.0431,0.0288,0.0201,0.0112,0.0082,0.0044,0.004,0.0041,0.0071,0.0107,0.0087,0,0,0,0,0,0.0264,0.0293,0.0346,0.0412,0.0473,0.0512,0.0574,0.06,0.0619,0.06,0.0588,0.051,0.037,0.0305,0.0214,0.0188,0.0066,0.0078,0.002,-0.0054,-0.0052,-0.0031,0,0,0,0,0,0,0.0278,0.0325,0.0341,0.0411,0.0458,0.0528,0.057,0.0594,0.0576,0.0579,0.0505,0.0478,0.0342,0.0422,0.0208,0.0182,0.013,0.0017,0.0015,-0.0055,-0.0053,-0.0052,-0.003,0,0,0,0,0]}]]